DW5684 Weather Reports


Display with metric or nautical units.
time (UTC)temp
F
wind
direction
speed
MPH
gust
MPH
rain 1hr
in
rain 24hr
in
rain mn
in
humidity
%
barometer
mb
20260507064257 39 290 0.0 0.0 0.00 0.00 0.00 91 1019.2
20260507063831 39 290 0.0 0.0 0.00 0.00 0.00 92 1019.3
20260507062801 39 290 0.0 0.0 0.00 0.00 0.00 91 1019.2
20260507062317 39 290 0.0 0.0 0.00 0.00 0.00 90 1019.2
20260507061813 39 290 0.0 0.0 0.00 0.00 0.00 90 1019.2
20260507061311 39 290 0.0 0.0 0.00 0.00 0.00 90 1019.2
20260507060806 39 290 0.0 0.0 0.00 0.00 0.00 90 1019.3
20260507060301 39 290 0.0 0.0 0.00 0.00 0.00 89 1019.3
20260507055757 40 290 0.0 0.0 0.00 0.00 0.00 89 1019.3
20260507055311 40 290 0.0 0.0 0.00 0.00 0.00 88 1019.2
20260507054806 40 290 0.0 0.0 0.00 0.00 0.00 88 1019.2
20260507054321 40 290 0.0 0.0 0.00 0.00 0.00 87 1019.3
20260507053834 40 290 0.0 0.0 0.00 0.00 0.00 87 1019.2
20260507053308 40 290 0.0 0.0 0.00 0.00 0.00 85 1019.2
20260507052823 41 290 0.0 0.0 0.00 0.00 0.00 86 1019.3
20260507052301 41 290 0.0 0.0 0.00 0.00 0.00 87 1019.2
20260507051757 41 290 0.0 0.0 0.00 0.00 0.00 87 1019.3
20260507051312 41 290 0.0 0.0 0.00 0.00 0.00 88 1019.3
20260507050807 41 290 0.0 0.0 0.00 0.00 0.00 88 1019.2
20260507050302 41 290 0.0 0.0 0.00 0.00 0.00 88 1019.2
20260507045817 41 290 0.0 0.0 0.00 0.00 0.00 86 1019.2
20260507045310 41 290 0.0 0.0 0.00 0.00 0.00 85 1019.2
20260507044805 41 290 0.0 0.0 0.00 0.00 0.00 85 1019.2
20260507044304 41 290 0.0 0.0 0.00 0.00 0.00 85 1019.1
20260507043800 41 290 0.0 0.0 0.00 0.00 0.00 84 1019.2
20260507043335 42 290 0.0 0.0 0.00 0.00 0.00 84 1019.1
20260507042809 42 290 0.0 0.0 0.00 0.00 0.00 84 1019.1
20260507042307 42 290 0.0 0.0 0.00 0.00 0.00 83 1019.1
20260507041759 42 290 0.0 0.0 0.00 0.00 0.00 83 1019.0
20260507041256 42 290 0.0 0.0 0.00 0.00 0.00 83 1019.1
20260507040810 42 290 0.0 0.0 0.00 0.00 0.00 84 1019.0
20260507040309 42 290 0.0 0.0 0.00 0.00 0.00 84 1019.0
20260507035805 42 290 0.0 0.0 0.00 0.00 0.00 84 1018.9
20260507035320 42 290 0.0 0.0 0.00 0.00 0.00 84 1019.0
20260507034813 42 290 0.0 0.0 0.00 0.00 0.00 84 1018.9
20260507034308 43 290 0.0 0.0 0.00 0.00 0.00 83 1018.9
20260507033803 43 290 0.0 0.0 0.00 0.00 0.00 83 1018.9
20260507033319 43 290 0.0 0.0 0.00 0.00 0.00 82 1018.9
20260507032814 43 290 0.0 0.0 0.00 0.00 0.00 82 1018.8
20260507032313 44 290 0.0 0.0 0.00 0.00 0.00 81 1018.8
20260507031807 44 290 0.0 0.0 0.00 0.00 0.00 81 1018.7
20260507031302 44 290 0.0 0.0 0.00 0.00 0.00 79 1018.8
20260507030817 44 290 0.0 0.0 0.00 0.00 0.00 79 1018.9
20260507030310 44 290 0.0 0.0 0.00 0.00 0.00 80 1018.8
20260507025827 45 290 0.0 0.0 0.00 0.00 0.00 79 1018.8
20260507025320 45 290 0.0 0.0 0.00 0.00 0.00 78 1018.7
20260507024814 45 290 0.0 0.0 0.00 0.00 0.00 78 1018.8
20260507024309 45 290 0.0 0.0 0.00 0.00 0.00 77 1018.7
20260507023805 46 290 0.0 0.0 0.00 0.00 0.00 79 1018.8
20260507023304 46 290 0.0 0.0 0.00 0.00 0.00 77 1018.7
20260507020809 47 290 0.0 0.0 0.00 0.00 0.00 74 1018.3
20260507020304 48 290 0.0 0.0 0.00 0.00 0.00 72 1018.3
20260507015819 48 290 0.0 0.0 0.00 0.00 0.00 70 1018.3
20260507015333 49 290 0.0 0.0 0.00 0.00 0.00 70 1018.2
20260507014807 49 290 0.0 0.0 0.00 0.00 0.00 69 1018.2
20260507014326 50 289 0.0 0.0 0.00 0.00 0.00 66 1018.1
20260507013819 50 314 0.0 0.0 0.00 0.00 0.00 67 1018.0
20260507013314 51 316 0.0 0.0 0.00 0.00 0.00 66 1018.0
20260507012809 51 317 0.0 0.0 0.00 0.00 0.00 63 1017.8
20260507012306 52 317 0.0 1.0 0.00 0.00 0.00 62 1017.8
20260507011819 52 316 0.0 1.0 0.00 0.00 0.00 62 1017.8
20260507011314 53 312 0.0 1.0 0.00 0.00 0.00 61 1017.7
20260507010809 54 345 0.0 1.0 0.00 0.00 0.00 58 1017.7
20260507010308 54 311 0.0 0.0 0.00 0.00 0.00 59 1017.6
20260507005803 55 321 0.0 0.0 0.00 0.02 0.00 57 1017.7
20260507005318 55 356 0.0 3.0 0.00 0.02 0.00 56 1017.6
20260507004813 56 267 0.0 4.0 0.00 0.02 0.00 54 1017.6
20260507004308 56 357 1.0 5.0 0.00 0.02 0.00 53 1017.6
20260507003802 57 343 1.0 7.0 0.00 0.02 0.00 54 1017.6
20260507003336 57 27 2.0 5.0 0.00 0.02 0.00 53 1017.5
20260507002810 57 305 1.0 4.0 0.00 0.02 0.00 52 1017.4
20260507002329 58 340 1.0 4.0 0.00 0.02 0.00 51 1017.3
20260507001803 58 316 1.0 4.0 0.00 0.02 0.00 54 1017.1
20260507001317 57 301 1.0 2.0 0.00 0.02 0.00 56 1017.1
20260507000832 57 19 0.0 2.0 0.00 0.02 0.00 55 1016.9
20260507000328 58 287 0.0 2.0 0.00 0.02 0.00 55 1016.8
20260506235800 58 291 0.0 3.0 0.00 0.03 0.00 54 1016.8
20260506235314 58 58 0.0 5.0 0.00 0.03 0.00 55 1016.9
20260506234807 59 154 0.0 4.0 0.00 0.03 0.00 54 1016.8
20260506234302 59 330 2.0 5.0 0.00 0.03 0.00 51 1016.8
20260506233801 60 304 1.0 5.0 0.00 0.03 0.00 51 1016.8
20260506233316 60 239 1.0 5.0 0.00 0.03 0.00 48 1016.6
20260506232830 60 7 2.0 7.0 0.00 0.03 0.00 51 1016.7
20260506232306 59 334 3.0 6.0 0.00 0.03 0.00 50 1016.6
20260506231818 60 156 0.0 5.0 0.00 0.03 0.00 50 1016.5
20260506231313 60 15 2.0 5.0 0.00 0.03 0.00 50 1016.7
20260506230807 60 329 1.0 5.0 0.00 0.03 0.00 48 1016.9
20260506230302 60 35 2.0 5.0 0.00 0.03 0.00 52 1017.0
20260506225814 60 274 1.0 5.0 0.00 0.03 0.00 48 1016.9
20260506225309 60 310 2.0 6.0 0.00 0.03 0.00 50 1016.8
20260506224808 61 293 3.0 9.0 0.00 0.03 0.00 47 1016.7
20260506224302 61 3 3.0 9.0 0.00 0.03 0.00 49 1016.6
20260506223814 61 15 2.0 9.0 0.00 0.03 0.00 53 1016.6
20260506223308 62 328 1.0 7.0 0.00 0.03 0.00 52 1016.6
20260506222801 62 309 2.0 6.0 0.00 0.03 0.00 49 1016.8
20260506222316 62 238 2.0 7.0 0.00 0.03 0.00 52 1016.8
20260506221810 62 56 3.0 7.0 0.00 0.03 0.00 48 1016.7
20260506221308 62 328 1.0 6.0 0.00 0.03 0.00 49 1016.6
20260506220803 62 25 1.0 6.0 0.00 0.03 0.00 49 1016.7
20260506220338 62 149 2.0 6.0 0.00 0.03 0.00 52 1016.8
20260506215811 62 15 1.0 7.0 0.00 0.03 0.00 49 1016.7
20260506215306 62 5 2.0 8.0 0.00 0.03 0.00 50 1016.7
20260506214801 62 293 1.0 8.0 0.00 0.03 0.00 49 1016.6
20260506214316 62 311 3.0 9.0 0.00 0.03 0.00 52 1016.7
20260506213831 63 300 4.0 9.0 0.00 0.03 0.00 50 1016.7
20260506213305 62 326 2.0 8.0 0.00 0.03 0.00 50 1016.8
20260506212804 61 353 2.0 5.0 0.00 0.03 0.00 51 1016.8
20260506212319 61 266 1.0 7.0 0.00 0.03 0.00 54 1016.8
20260506211814 61 344 2.0 11.0 0.00 0.03 0.00 50 1016.8
20260506211309 62 352 2.0 11.0 0.00 0.03 0.00 52 1016.8
20260506210804 62 288 4.0 9.0 0.00 0.03 0.00 50 1016.9
20260506210338 62 33 2.0 7.0 0.00 0.03 0.00 50 1016.9
20260506205832 62 330 0.0 11.0 0.00 0.03 0.00 49 1016.9
20260506205306 62 310 4.0 10.0 0.00 0.03 0.00 48 1017.1
20260506204804 62 360 2.0 11.0 0.00 0.03 0.00 55 1017.1
20260506204319 62 328 2.0 11.0 0.00 0.03 0.00 52 1017.1
20260506203814 62 70 5.0 11.0 0.00 0.03 0.00 48 1017.2
20260506203308 63 143 3.0 10.0 0.00 0.03 0.00 46 1017.1
20260506202802 63 318 2.0 10.0 0.00 0.03 0.00 51 1017.2
20260506202317 63 143 2.0 8.0 0.00 0.03 0.00 49 1017.0
20260506201813 63 131 0.0 7.0 0.00 0.03 0.00 48 1017.0
20260506201307 63 293 3.0 7.0 0.00 0.03 0.00 50 1017.2
20260506200806 62 36 2.0 7.0 0.00 0.03 0.00 53 1017.5
20260506200301 62 340 2.0 7.0 0.00 0.03 0.00 47 1017.5
20260506195816 62 309 2.0 9.0 0.00 0.03 0.00 46 1017.7
20260506195311 62 121 3.0 9.0 0.00 0.03 0.00 49 1017.7
20260506194807 62 326 2.0 8.0 0.00 0.03 0.00 57 1017.7
20260506194303 62 360 3.0 8.0 0.00 0.03 0.00 52 1017.5
20260506193818 62 224 1.0 5.0 0.00 0.03 0.00 50 1017.9
20260506193332 62 44 1.0 9.0 0.00 0.03 0.00 55 1017.9
20260506192810 61 308 4.0 11.0 0.00 0.03 0.00 51 1018.0
20260506192306 61 343 4.0 12.0 0.00 0.03 0.00 51 1018.1
20260506191800 63 333 2.0 5.0 0.00 0.03 0.00 49 1018.0
20260506191315 62 270 0.0 8.0 0.00 0.03 0.00 54 1018.0
20260506190810 62 343 2.0 8.0 0.00 0.03 0.00 56 1018.1
20260506190305 62 9 2.0 7.0 0.00 0.03 0.00 57 1018.2
20260506185801 61 342 2.0 7.0 0.00 0.03 0.00 55 1018.3
20260506185300 62 306 1.0 8.0 0.00 0.03 0.00 53 1018.3
20260506184816 62 293 0.0 8.0 0.00 0.03 0.00 52 1018.4
20260506184310 62 319 1.0 5.0 0.00 0.03 0.00 58 1018.4
20260506183804 61 323 2.0 7.0 0.00 0.03 0.00 55 1018.6
20260506183319 61 325 0.0 7.0 0.00 0.03 0.00 55 1018.6
20260506182814 60 286 1.0 7.0 0.00 0.03 0.00 52 1018.8
20260506182307 60 326 0.0 7.0 0.00 0.03 0.00 59 1018.9
20260506181801 59 39 2.0 7.0 0.00 0.03 0.00 57 1018.9
20260506181335 60 313 0.0 9.0 0.00 0.03 0.00 54 1018.9
20260506180809 59 312 2.0 10.0 0.00 0.03 0.00 55 1019.1
20260506180308 59 322 5.0 10.0 0.00 0.03 0.00 54 1018.9
20260506175802 59 267 5.0 10.0 0.00 0.03 0.00 52 1018.9
20260506175317 59 10 4.0 9.0 0.00 0.03 0.00 51 1019.1
20260506174812 59 25 2.0 9.0 0.00 0.03 0.00 54 1019.2
20260506174307 59 316 0.0 7.0 0.00 0.03 0.00 55 1019.1
20260506173802 59 315 3.0 11.0 0.00 0.03 0.00 52 1019.1
20260506173337 60 307 2.0 6.0 0.00 0.03 0.00 58 1019.2
20260506172811 59 323 3.0 9.0 0.00 0.03 0.00 56 1019.2
20260506172310 59 32 2.0 8.0 0.00 0.03 0.00 54 1019.3
20260506171805 59 70 1.0 11.0 0.00 0.03 0.00 54 1019.2
20260506171300 59 290 3.0 11.0 0.00 0.03 0.00 57 1019.2
20260506170815 59 316 4.0 11.0 0.00 0.03 0.00 52 1019.2
20260506170310 59 10 2.0 9.0 0.00 0.03 0.00 56 1019.2
20260506165805 59 302 1.0 7.0 0.00 0.03 0.00 55 1019.2
20260506165339 59 335 2.0 7.0 0.00 0.03 0.00 52 1019.1
20260506164813 59 39 3.0 8.0 0.00 0.03 0.00 55 1018.9
20260506164312 59 338 2.0 8.0 0.00 0.03 0.00 53 1018.7
20260506163808 58 299 0.0 6.0 0.00 0.03 0.00 58 1018.6
20260506163302 58 248 2.0 6.0 0.00 0.03 0.00 52 1018.4
20260506162818 58 308 1.0 10.0 0.00 0.03 0.00 59 1018.6
20260506162313 58 314 3.0 10.0 0.00 0.03 0.00 59 1018.4
20260506161808 58 27 1.0 10.0 0.00 0.03 0.00 58 1018.2
20260506161303 57 98 3.0 8.0 0.00 0.03 0.00 60 1018.1
20260506160802 58 252 0.0 6.0 0.00 0.03 0.00 60 1018.2
20260506160337 57 32 1.0 8.0 0.00 0.03 0.00 60 1018.2
20260506155811 57 135 2.0 10.0 0.00 0.03 0.00 61 1018.1
20260506155306 57 306 2.0 10.0 0.00 0.03 0.00 60 1018.2
20260506154801 57 286 2.0 6.0 0.00 0.03 0.00 62 1018.2
20260506154315 57 330 1.0 6.0 0.00 0.03 0.00 58 1018.2
20260506153810 57 212 2.0 6.0 0.00 0.03 0.00 57 1018.4
20260506153304 56 51 1.0 6.0 0.00 0.03 0.00 58 1018.3
20260506152804 56 316 2.0 6.0 0.00 0.03 0.00 58 1018.1
20260506152319 56 259 3.0 9.0 0.00 0.03 0.00 60 1018.1
20260506151315 56 126 2.0 7.0 0.00 0.03 0.00 66 1017.7
20260506150830 55 314 1.0 8.0 0.00 0.03 0.00 64 1017.7
20260506150324 55 334 2.0 8.0 0.00 0.03 0.00 62 1017.8
20260506145837 55 293 1.0 5.0 0.00 0.03 0.00 68 1017.8
20260506145311 55 332 1.0 8.0 0.00 0.03 0.00 65 1017.7
20260506144806 54 327 1.0 8.0 0.00 0.03 0.00 68 1017.7
20260506144305 54 355 1.0 5.0 0.00 0.03 0.00 68 1017.9
20260506143819 54 327 1.0 5.0 0.00 0.03 0.00 71 1018.0
20260506143314 54 293 1.0 4.0 0.00 0.03 0.00 69 1017.9
20260506142810 53 287 1.0 4.0 0.00 0.03 0.00 68 1017.9
20260506142306 52 81 0.0 0.0 0.00 0.03 0.00 72 1018.0
20260506141840 52 343 0.0 3.0 0.00 0.03 0.00 74 1018.0
20260506141314 51 73 1.0 3.0 0.00 0.03 0.00 73 1018.1
20260506140808 51 120 0.0 0.0 0.00 0.03 0.00 76 1018.0
20260506140307 51 299 0.0 2.0 0.00 0.03 0.00 76 1018.0
20260506135802 50 174 0.0 2.0 0.00 0.03 0.00 77 1018.0
20260506135316 50 219 0.0 0.0 0.00 0.03 0.00 78 1018.0
20260506134811 50 311 0.0 3.0 0.00 0.03 0.00 78 1018.0
20260506134305 49 101 0.0 3.0 0.00 0.03 0.00 81 1018.0
20260506133817 49 302 0.0 1.0 0.00 0.03 0.00 80 1017.7
20260506133312 48 248 0.0 1.0 0.00 0.03 0.00 81 1017.7
20260506132807 48 191 0.0 0.0 0.00 0.03 0.00 81 1017.7
20260506132307 47 141 0.0 3.0 0.00 0.03 0.00 82 1017.6
20260506131819 47 167 1.0 3.0 0.00 0.03 0.00 83 1017.6
20260506131312 47 229 0.0 5.0 0.00 0.03 0.00 84 1017.6
20260506130808 46 219 0.0 5.0 0.00 0.03 0.00 85 1017.6
20260506130302 46 221 0.0 0.0 0.00 0.03 0.00 85 1017.6
20260506125837 46 204 0.0 5.0 0.00 0.03 0.00 85 1017.5
20260506125330 46 213 0.0 4.0 0.00 0.03 0.00 85 1017.7
20260506124804 46 228 1.0 4.0 0.00 0.03 0.00 85 1017.8
20260506124317 46 274 0.0 3.0 0.00 0.03 0.00 86 1017.7
20260506123816 46 299 0.0 3.0 0.00 0.03 0.00 86 1017.7
20260506123311 46 303 0.0 2.0 0.00 0.03 0.00 86 1017.7
20260506122806 46 283 0.0 4.0 0.00 0.03 0.00 87 1017.9
20260506122340 46 314 0.0 4.0 0.00 0.03 0.00 87 1017.9
20260506121813 46 284 0.0 4.0 0.00 0.03 0.00 89 1018.0
20260506121328 45 328 0.0 4.0 0.00 0.03 0.00 89 1017.8
20260506120802 45 186 0.0 4.0 0.00 0.03 0.00 90 1017.9
20260506120317 45 331 0.0 4.0 0.00 0.03 0.00 90 1017.9
20260506115812 45 339 1.0 4.0 0.00 0.03 0.00 90 1017.7
20260506115310 45 15 0.0 3.0 0.00 0.03 0.00 90 1017.7
20260506114805 45 326 1.0 3.0 0.00 0.03 0.00 91 1017.7
20260506114259 45 12 0.0 4.0 0.00 0.03 0.00 92 1017.6
20260506113814 45 314 0.0 7.0 0.00 0.03 0.00 92 1017.4
20260506113309 45 354 0.0 4.0 0.00 0.03 0.00 92 1017.5
20260506112803 45 359 1.0 5.0 0.00 0.03 0.00 92 1017.5
20260506112318 45 315 1.0 5.0 0.00 0.03 0.00 92 1017.5
20260506111813 45 321 1.0 4.0 0.00 0.03 0.00 93 1017.3
20260506111312 45 296 0.0 4.0 0.00 0.03 0.00 93 1017.1
20260506110807 45 276 0.0 4.0 0.00 0.03 0.00 93 1017.1
20260506110300 45 325 0.0 4.0 0.00 0.03 0.00 93 1016.9
20260506105814 45 317 0.0 3.0 0.00 0.03 0.00 94 1016.7
20260506105307 45 316 0.0 3.0 0.00 0.03 0.00 94 1016.5
20260506104822 45 333 0.0 3.0 0.00 0.03 0.00 94 1016.3
20260506104315 45 312 0.0 3.0 0.00 0.03 0.00 94 1016.0
20260506103810 45 332 0.0 3.0 0.00 0.03 0.00 94 1016.2
20260506103308 45 303 1.0 3.0 0.00 0.03 0.00 94 1016.5
20260506102823 45 302 0.0 3.0 0.00 0.03 0.00 94 1016.6
20260506102317 45 314 1.0 3.0 0.00 0.03 0.00 94 1016.3
20260506101812 45 312 0.0 3.0 0.00 0.03 0.00 94 1016.2
20260506101325 45 334 0.0 4.0 0.00 0.03 0.00 94 1016.3
20260506100838 45 331 0.0 3.0 0.00 0.03 0.00 94 1016.3
20260506100310 45 321 1.0 4.0 0.00 0.03 0.00 94 1016.1
20260506095805 45 318 1.0 4.0 0.00 0.03 0.00 94 1015.9
20260506095300 45 309 0.0 0.0 0.00 0.03 0.00 94 1015.7
20260506094815 45 295 0.0 1.0 0.00 0.03 0.00 94 1016.0
20260506094314 45 301 0.0 3.0 0.00 0.03 0.00 94 1016.1
20260506093829 45 314 0.0 3.0 0.00 0.03 0.00 94 1016.3
20260506093303 45 290 0.0 5.0 0.00 0.03 0.00 94 1016.1
20260506092817 45 359 1.0 5.0 0.00 0.03 0.00 94 1016.1
20260506092332 45 337 1.0 7.0 0.00 0.03 0.00 94 1015.8
20260506091826 45 325 1.0 7.0 0.00 0.03 0.00 94 1015.5
20260506091300 45 338 1.0 5.0 0.00 0.03 0.00 94 1015.2
20260506090834 45 302 0.0 3.0 0.00 0.03 0.00 94 1014.9
20260506090308 45 323 0.0 4.0 0.00 0.03 0.00 94 1015.1
20260506085807 45 336 0.0 4.0 0.00 0.03 0.00 94 1015.2
20260506085305 45 49 0.0 1.0 0.00 0.03 0.00 93 1015.2
20260506084817 45 286 0.0 1.0 0.00 0.03 0.00 93 1015.3
20260506084312 45 328 0.0 0.0 0.00 0.03 0.00 94 1014.9
20260506083807 45 48 0.0 0.0 0.00 0.03 0.00 93 1014.4
20260506083302 45 48 0.0 0.0 0.00 0.03 0.00 93 1013.9
20260506082816 45 94 0.0 4.0 0.00 0.03 0.00 93 1013.6
20260506082312 45 9 0.0 4.0 0.00 0.03 0.00 93 1014.4
20260506081812 45 340 0.0 6.0 0.00 0.03 0.00 93 1014.3
20260506081326 45 326 1.0 6.0 0.00 0.03 0.00 93 1014.7
20260506080759 45 312 0.0 1.0 0.00 0.03 0.00 94 1014.3
20260506080314 45 345 0.0 1.0 0.00 0.03 0.00 93 1013.9
20260506073307 45 1 1.0 3.0 0.00 0.11 0.00 92 1013.6
20260506072802 45 289 0.0 2.0 0.00 0.11 0.00 92 1013.8
20260506072318 45 315 1.0 3.0 0.00 0.11 0.00 92 1014.0
20260506071812 45 324 0.0 3.0 0.00 0.11 0.00 91 1013.8
20260506071308 45 295 0.0 4.0 0.00 0.11 0.00 91 1014.1
20260506070803 46 311 0.0 4.0 0.00 0.11 0.00 91 1014.3
20260506070302 46 307 0.0 2.0 0.00 0.11 0.00 90 1014.3